| time (UTC) | temp F | wind direction | speed MPH | gust MPH | rain 1hr in | rain 24hr in | rain mn in | humidity % | barometer mb |
| 20260904140817 | 51 | 149 | 1.0 | 3.0 | 0.01 | 0.02 | 0.01 | 84 | 1012.4 |
| 20260904135816 | 51 | 171 | 1.0 | 2.0 | 0.01 | 0.02 | 0.01 | 83 | 1012.3 |
| 20260904134817 | 51 | 168 | 1.0 | 4.0 | 0.01 | 0.02 | 0.01 | 83 | 1012.3 |
| 20260904133816 | 51 | 179 | 2.0 | 2.0 | 0.01 | 0.02 | 0.01 | 82 | 1012.1 |
| 20260904132815 | 51 | 151 | 2.0 | 3.0 | 0.01 | 0.01 | 0.01 | 82 | 1012.1 |
| 20260904131815 | 51 | 145 | 2.0 | 2.0 | 0.00 | 0.01 | 0.00 | 82 | 1012.0 |
| 20260904130837 | 51 | 147 | 2.0 | 2.0 | 0.00 | 0.01 | 0.00 | 81 | 1011.9 |
| 20260904125817 | 51 | 152 | 2.0 | 2.0 | 0.00 | 0.01 | 0.00 | 81 | 1011.8 |
| 20260904124817 | 51 | 150 | 1.0 | 2.0 | 0.00 | 0.01 | 0.00 | 81 | 1011.8 |
| 20260904123856 | 51 | 173 | 1.0 | 3.0 | 0.00 | 0.01 | 0.00 | 81 | 1011.8 |
| 20260904122816 | 51 | 160 | 2.0 | 3.0 | 0.00 | 0.01 | 0.00 | 81 | 1011.8 |
| 20260904121815 | 51 | 167 | 2.0 | 2.0 | 0.00 | 0.01 | 0.00 | 80 | 1011.7 |
| 20260904120818 | 52 | 156 | 1.0 | 2.0 | 0.00 | 0.01 | 0.00 | 79 | 1011.5 |
| 20260904115837 | 52 | 152 | 1.0 | 2.0 | 0.00 | 0.01 | 0.00 | 79 | 1011.5 |
| 20260904114857 | 52 | 155 | 1.0 | 2.0 | 0.00 | 0.01 | 0.00 | 79 | 1011.4 |
| 20260904113816 | 52 | 159 | 1.0 | 2.0 | 0.00 | 0.01 | 0.00 | 79 | 1011.4 |
| 20260904112816 | 52 | 108 | 1.0 | 3.0 | 0.00 | 0.01 | 0.00 | 78 | 1011.3 |
| 20260904111815 | 52 | 152 | 2.0 | 3.0 | 0.00 | 0.01 | 0.00 | 77 | 1011.3 |
| 20260904110835 | 53 | 158 | 2.0 | 3.0 | 0.00 | 0.01 | 0.00 | 75 | 1011.1 |
| 20260904105817 | 54 | 209 | 2.0 | 6.0 | 0.00 | 0.01 | 0.00 | 72 | 1011.1 |
| 20260904104817 | 54 | 239 | 2.0 | 9.0 | 0.00 | 0.01 | 0.00 | 72 | 1010.9 |
| 20260904103816 | 54 | 230 | 3.0 | 10.0 | 0.00 | 0.01 | 0.00 | 72 | 1010.8 |
| 20260904102816 | 54 | 259 | 6.0 | 11.0 | 0.00 | 0.01 | 0.00 | 71 | 1010.7 |
| 20260904101815 | 54 | 243 | 3.0 | 10.0 | 0.00 | 0.01 | 0.00 | 71 | 1010.6 |
| 20260904100815 | 54 | 262 | 5.0 | 12.0 | 0.00 | 0.01 | 0.00 | 71 | 1010.6 |
| 20260904095817 | 54 | 262 | 5.0 | 10.0 | 0.00 | 0.01 | 0.00 | 73 | 1010.4 |
| 20260904094817 | 53 | 261 | 4.0 | 8.0 | 0.00 | 0.01 | 0.00 | 74 | 1010.5 |
| 20260904093816 | 53 | 268 | 4.0 | 6.0 | 0.00 | 0.01 | 0.00 | 75 | 1010.4 |
| 20260904092816 | 53 | 239 | 4.0 | 8.0 | 0.00 | 0.01 | 0.00 | 74 | 1010.4 |
| 20260904091815 | 53 | 270 | 5.0 | 9.0 | 0.00 | 0.01 | 0.00 | 75 | 1010.3 |
| 20260904090815 | 54 | 259 | 6.0 | 8.0 | 0.00 | 0.01 | 0.00 | 74 | 1010.4 |
| 20260904085815 | 54 | 266 | 4.0 | 9.0 | 0.00 | 0.01 | 0.00 | 74 | 1010.4 |
| 20260904084817 | 54 | 241 | 2.0 | 12.0 | 0.00 | 0.01 | 0.00 | 75 | 1010.3 |
| 20260904083817 | 54 | 266 | 8.0 | 13.0 | 0.00 | 0.01 | 0.00 | 76 | 1010.2 |
| 20260904082816 | 54 | 277 | 5.0 | 15.0 | 0.00 | 0.01 | 0.00 | 76 | 1010.1 |
| 20260904081816 | 54 | 268 | 6.0 | 13.0 | 0.00 | 0.01 | 0.00 | 76 | 1010.0 |
| 20260904080815 | 54 | 246 | 7.0 | 13.0 | 0.00 | 0.01 | 0.00 | 74 | 1010.1 |
| 20260904075835 | 54 | 272 | 6.0 | 13.0 | 0.00 | 0.01 | 0.00 | 73 | 1010.1 |
| 20260904074818 | 54 | 268 | 4.0 | 11.0 | 0.00 | 0.01 | 0.00 | 73 | 1010.1 |
| 20260904073817 | 55 | 267 | 8.0 | 13.0 | 0.00 | 0.01 | 0.00 | 71 | 1010.1 |
| 20260904072817 | 55 | 274 | 6.0 | 11.0 | 0.00 | 0.01 | 0.00 | 72 | 1010.2 |
| 20260904071816 | 55 | 256 | 5.0 | 10.0 | 0.00 | 0.01 | 0.00 | 74 | 1010.1 |
| 20260904070816 | 55 | 268 | 5.0 | 15.0 | 0.00 | 0.01 | 0.00 | 74 | 1010.0 |
| 20260904065815 | 55 | 267 | 5.0 | 12.0 | 0.00 | 0.01 | 0.01 | 74 | 1010.0 |
| 20260904064835 | 55 | 260 | 5.0 | 11.0 | 0.00 | 0.01 | 0.01 | 74 | 1010.0 |
| 20260904063817 | 55 | 287 | 5.0 | 13.0 | 0.00 | 0.01 | 0.01 | 74 | 1010.0 |
| 20260904062817 | 55 | 273 | 4.0 | 12.0 | 0.00 | 0.01 | 0.01 | 75 | 1009.9 |
| 20260904061817 | 55 | 301 | 6.0 | 13.0 | 0.00 | 0.01 | 0.01 | 74 | 1009.9 |
| 20260904060816 | 55 | 274 | 4.0 | 15.0 | 0.00 | 0.01 | 0.01 | 74 | 1009.9 |
| 20260904055816 | 55 | 243 | 6.0 | 14.0 | 0.00 | 0.01 | 0.01 | 74 | 1009.8 |
| 20260904054815 | 56 | 280 | 3.0 | 11.0 | 0.00 | 0.01 | 0.01 | 75 | 1009.8 |
| 20260904053835 | 56 | 271 | 6.0 | 13.0 | 0.00 | 0.01 | 0.01 | 75 | 1009.8 |
| 20260904052817 | 56 | 270 | 4.0 | 11.0 | 0.00 | 0.01 | 0.01 | 75 | 1009.8 |
| 20260904051817 | 56 | 259 | 4.0 | 11.0 | 0.00 | 0.01 | 0.01 | 75 | 1009.8 |
| 20260904050816 | 56 | 287 | 6.0 | 11.0 | 0.00 | 0.01 | 0.01 | 75 | 1009.9 |
| 20260904045816 | 56 | 245 | 6.0 | 11.0 | 0.00 | 0.01 | 0.01 | 74 | 1009.9 |
| 20260904044835 | 56 | 267 | 6.0 | 12.0 | 0.00 | 0.01 | 0.01 | 72 | 1010.0 |
| 20260904043815 | 57 | 280 | 4.0 | 11.0 | 0.00 | 0.01 | 0.01 | 71 | 1009.9 |
| 20260904042818 | 57 | 286 | 5.0 | 11.0 | 0.00 | 0.01 | 0.01 | 71 | 1009.9 |
| 20260904041817 | 57 | 258 | 5.0 | 12.0 | 0.00 | 0.01 | 0.01 | 71 | 1009.9 |
| 20260904040817 | 57 | 271 | 5.0 | 12.0 | 0.00 | 0.01 | 0.01 | 70 | 1009.9 |
| 20260904035816 | 57 | 279 | 6.0 | 12.0 | 0.00 | 0.01 | 0.01 | 69 | 1010.0 |
| 20260904034815 | 58 | 254 | 6.0 | 8.0 | 0.00 | 0.01 | 0.01 | 67 | 1010.0 |
| 20260904033815 | 58 | 302 | 3.0 | 10.0 | 0.00 | 0.01 | 0.01 | 66 | 1009.9 |
| 20260904032815 | 58 | 270 | 5.0 | 13.0 | 0.00 | 0.01 | 0.01 | 65 | 1009.7 |
| 20260904031817 | 58 | 251 | 5.0 | 14.0 | 0.00 | 0.01 | 0.01 | 65 | 1009.6 |
| 20260904030817 | 58 | 269 | 4.0 | 15.0 | 0.00 | 0.01 | 0.01 | 65 | 1009.5 |
| 20260904025817 | 58 | 250 | 5.0 | 13.0 | 0.00 | 0.01 | 0.01 | 65 | 1009.4 |
| 20260904024816 | 58 | 261 | 5.0 | 12.0 | 0.00 | 0.01 | 0.01 | 66 | 1009.4 |
| 20260904023815 | 58 | 282 | 7.0 | 15.0 | 0.00 | 0.01 | 0.01 | 67 | 1009.3 |
| 20260904022815 | 59 | 248 | 6.0 | 13.0 | 0.00 | 0.01 | 0.01 | 66 | 1009.2 |
| 20260904021818 | 59 | 258 | 8.0 | 13.0 | 0.00 | 0.01 | 0.01 | 66 | 1009.2 |
| 20260904020817 | 59 | 272 | 8.0 | 15.0 | 0.00 | 0.01 | 0.01 | 66 | 1009.2 |
| 20260904015817 | 59 | 261 | 8.0 | 16.0 | 0.00 | 0.03 | 0.01 | 64 | 1009.2 |
| 20260904014816 | 59 | 257 | 5.0 | 16.0 | 0.00 | 0.06 | 0.01 | 64 | 1009.1 |
| 20260904013816 | 59 | 257 | 8.0 | 15.0 | 0.00 | 0.08 | 0.01 | 64 | 1009.1 |
| 20260904012816 | 59 | 278 | 9.0 | 16.0 | 0.00 | 0.08 | 0.01 | 62 | 1009.1 |
| 20260904011814 | 59 | 281 | 7.0 | 16.0 | 0.00 | 0.08 | 0.01 | 62 | 1009.1 |
| 20260904010817 | 60 | 283 | 5.0 | 13.0 | 0.00 | 0.08 | 0.01 | 60 | 1009.1 |
| 20260904005837 | 60 | 273 | 7.0 | 14.0 | 0.00 | 0.09 | 0.01 | 59 | 1009.0 |
| 20260904004816 | 61 | 277 | 4.0 | 17.0 | 0.00 | 0.09 | 0.01 | 60 | 1009.0 |
| 20260904003836 | 62 | 281 | 7.0 | 16.0 | 0.00 | 0.09 | 0.01 | 59 | 1008.9 |
| 20260904002815 | 61 | 253 | 8.0 | 14.0 | 0.01 | 0.10 | 0.01 | 60 | 1008.8 |
| 20260904001835 | 60 | 277 | 7.0 | 16.0 | 0.01 | 0.10 | 0.01 | 62 | 1008.8 |
| 20260904000817 | 60 | 290 | 6.0 | 15.0 | 0.01 | 0.12 | 0.01 | 62 | 1008.9 |
| 20260903235817 | 60 | 268 | 7.0 | 24.0 | 0.01 | 0.12 | 0.01 | 63 | 1009.0 |
| 20260903234817 | 59 | 253 | 6.0 | 16.0 | 0.01 | 0.13 | 0.01 | 65 | 1009.1 |
| 20260903233816 | 58 | 288 | 8.0 | 18.0 | 0.01 | 0.13 | 0.01 | 67 | 1009.2 |
| 20260903232816 | 59 | 263 | 8.0 | 19.0 | 0.00 | 0.12 | 0.01 | 61 | 1009.2 |
| 20260903231815 | 60 | 282 | 10.0 | 26.0 | 0.00 | 0.12 | 0.00 | 59 | 1009.3 |
| 20260903230835 | 59 | 258 | 11.0 | 23.0 | 0.00 | 0.12 | 0.00 | 60 | 1009.3 |
| 20260903225818 | 60 | 275 | 12.0 | 26.0 | 0.00 | 0.12 | 0.00 | 60 | 1009.5 |
| 20260903224837 | 60 | 261 | 13.0 | 21.0 | 0.00 | 0.12 | 0.00 | 59 | 1009.5 |
| 20260903223816 | 60 | 289 | 9.0 | 17.0 | 0.00 | 0.12 | 0.00 | 58 | 1009.5 |
| 20260903222816 | 59 | 295 | 8.0 | 25.0 | 0.00 | 0.12 | 0.00 | 59 | 1009.5 |
| 20260903221815 | 59 | 272 | 12.0 | 25.0 | 0.00 | 0.12 | 0.00 | 60 | 1009.4 |
| 20260903220815 | 58 | 269 | 11.0 | 27.0 | 0.00 | 0.12 | 0.00 | 61 | 1009.5 |
| 20260903215814 | 58 | 259 | 10.0 | 31.0 | 0.00 | 0.13 | 0.00 | 62 | 1009.5 |
| 20260903214817 | 59 | 277 | 8.0 | 30.0 | 0.00 | 0.13 | 0.00 | 58 | 1009.4 |
| 20260903213817 | 61 | 283 | 11.0 | 29.0 | 0.00 | 0.13 | 0.00 | 56 | 1009.4 |
| 20260903212816 | 63 | 300 | 12.0 | 27.0 | 0.00 | 0.13 | 0.00 | 54 | 1009.2 |
| 20260903211816 | 63 | 272 | 7.0 | 16.0 | 0.00 | 0.13 | 0.00 | 54 | 1009.2 |
| 20260903210816 | 63 | 280 | 6.0 | 9.0 | 0.00 | 0.13 | 0.00 | 53 | 1009.1 |
| 20260903205815 | 64 | 293 | 5.0 | 10.0 | 0.00 | 0.14 | 0.00 | 50 | 1009.1 |
| 20260903204818 | 65 | 307 | 4.0 | 8.0 | 0.00 | 0.14 | 0.00 | 53 | 1009.1 |
| 20260903203817 | 65 | 305 | 3.0 | 5.0 | 0.00 | 0.14 | 0.00 | 53 | 1009.1 |
| 20260903202816 | 65 | 349 | 1.0 | 3.0 | 0.00 | 0.15 | 0.00 | 51 | 1009.2 |
| 20260903201816 | 65 | 15 | 2.0 | 4.0 | 0.00 | 0.15 | 0.00 | 50 | 1009.3 |
| 20260903200817 | 65 | 284 | 1.0 | 5.0 | 0.00 | 0.15 | 0.00 | 49 | 1009.4 |
| 20260903195815 | 64 | 346 | 2.0 | 5.0 | 0.00 | 0.15 | 0.00 | 50 | 1009.5 |
| 20260903194814 | 64 | 237 | 2.0 | 4.0 | 0.00 | 0.15 | 0.00 | 50 | 1009.7 |
| 20260903193817 | 63 | 20 | 2.0 | 4.0 | 0.00 | 0.15 | 0.00 | 52 | 1009.8 |
| 20260903192817 | 61 | 332 | 2.0 | 6.0 | 0.00 | 0.16 | 0.00 | 57 | 1010.0 |
| 20260903191816 | 62 | 346 | 1.0 | 4.0 | 0.00 | 0.16 | 0.00 | 59 | 1010.1 |
| 20260903190836 | 62 | 2 | 1.0 | 4.0 | 0.00 | 0.16 | 0.00 | 56 | 1010.2 |
| 20260903185815 | 61 | 335 | 2.0 | 5.0 | 0.00 | 0.16 | 0.00 | 55 | 1010.3 |
| 20260903184815 | 61 | 325 | 1.0 | 5.0 | 0.00 | 0.16 | 0.00 | 57 | 1010.4 |
| 20260903183820 | 62 | 360 | 2.0 | 5.0 | 0.00 | 0.16 | 0.00 | 56 | 1010.4 |
| 20260903182817 | 61 | 325 | 1.0 | 5.0 | 0.00 | 0.16 | 0.00 | 59 | 1010.4 |
| 20260903181816 | 61 | 4 | 1.0 | 4.0 | 0.00 | 0.16 | 0.00 | 60 | 1010.5 |
| 20260903180816 | 60 | 32 | 2.0 | 4.0 | 0.00 | 0.16 | 0.00 | 62 | 1010.5 |
| 20260903175816 | 59 | 18 | 2.0 | 4.0 | 0.00 | 0.16 | 0.00 | 65 | 1010.5 |
| 20260903174835 | 58 | 353 | 1.0 | 4.0 | 0.00 | 0.16 | 0.00 | 69 | 1010.6 |
| 20260903173815 | 57 | 14 | 2.0 | 4.0 | 0.00 | 0.16 | 0.00 | 71 | 1010.7 |
| 20260903172818 | 56 | 11 | 1.0 | 4.0 | 0.00 | 0.16 | 0.00 | 75 | 1010.6 |
| 20260903171817 | 55 | 80 | 2.0 | 3.0 | 0.00 | 0.16 | 0.00 | 75 | 1010.7 |
| 20260903170816 | 55 | 41 | 2.0 | 4.0 | 0.00 | 0.16 | 0.00 | 75 | 1010.8 |
| 20260903165816 | 54 | 43 | 1.0 | 3.0 | 0.00 | 0.16 | 0.00 | 78 | 1010.9 |
| 20260903164816 | 54 | 73 | 1.0 | 4.0 | 0.00 | 0.16 | 0.00 | 78 | 1011.0 |
| 20260903163855 | 54 | 197 | 2.0 | 4.0 | 0.00 | 0.16 | 0.00 | 79 | 1010.8 |
| 20260903162818 | 54 | 324 | 1.0 | 4.0 | 0.00 | 0.16 | 0.00 | 78 | 1010.7 |
| 20260903161818 | 54 | 105 | 2.0 | 3.0 | 0.00 | 0.16 | 0.00 | 80 | 1010.7 |
| 20260903160817 | 53 | 186 | 1.0 | 3.0 | 0.00 | 0.16 | 0.00 | 80 | 1010.8 |
| 20260903155816 | 53 | 157 | 2.0 | 3.0 | 0.00 | 0.16 | 0.00 | 80 | 1010.8 |
| 20260903154816 | 53 | 206 | 1.0 | 3.0 | 0.00 | 0.16 | 0.00 | 80 | 1010.8 |
| 20260903153815 | 53 | 155 | 1.0 | 5.0 | 0.00 | 0.16 | 0.00 | 80 | 1010.9 |
| 20260903152815 | 53 | 117 | 2.0 | 4.0 | 0.00 | 0.16 | 0.00 | 81 | 1010.9 |
| 20260903151837 | 53 | 207 | 1.0 | 4.0 | 0.00 | 0.16 | 0.00 | 82 | 1010.8 |
| 20260903150817 | 52 | 167 | 1.0 | 2.0 | 0.00 | 0.16 | 0.00 | 81 | 1010.9 |
| 20260903145816 | 52 | 129 | 1.0 | 2.0 | 0.00 | 0.16 | 0.00 | 82 | 1010.8 |
| 20260903144816 | 52 | 125 | 1.0 | 2.0 | 0.00 | 0.16 | 0.00 | 82 | 1010.8 |
| 20260903143815 | 52 | 152 | 1.0 | 2.0 | 0.00 | 0.16 | 0.00 | 83 | 1010.7 |
| 20260903142815 | 51 | 134 | 1.0 | 2.0 | 0.00 | 0.16 | 0.00 | 83 | 1010.7 |
| 20260903141814 | 51 | 208 | 0.0 | 2.0 | 0.00 | 0.16 | 0.00 | 83 | 1010.6 |